Tracking 32420 objects as of 8-Dec-2025
HD Live streaming from Space Station
objects crossing your sky now

COSMOS 249 DEB

Track COSMOS 249 DEB now!
10-day predictions


NORAD ID: 14430
Int'l Code: 1968-091CV
Perigee: 745.6 km
Apogee: 1,782.8 km
Inclination: 62.2 °
Period: 110.7 minutes
Semi major axis: 7635 km
RCS: 0.0133 m2 (small)
Launch date: October 20, 1968
Source: Commonwealth of Independent States (former USSR) (CIS)
Launch site: TYURATAM MISSILE AND SPACE COMPLEX (TTMTR)

Note: This is SATELLITE DEBRIS
Your satellite tracking list
Your tracking list is empty




NASA's NSSDC Master Catalog

Two Line Element Set (TLE):
1 14430U 68091CV  25342.57208848  .00001203  00000-0  14006-2 0  9993
2 14430  62.2408  25.5850 0679220 133.3109  16.5581 13.01288878 76079
Source of the keplerian elements: AFSPC